SQ7KHZ-10 Weather Reports


time (UTC)temp
F
wind
direction
speed
knots
gust
knots
rain 1hr
in
rain 24hr
in
rain mn
in
humidity
%
barometer
mb
20260504080846 71 140 0.0 0.0 0.00 0.00 0.00 41 1014.6
20260504050707 56 131 0.0 0.0 0.00 0.00 0.00 60 1014.5
20260504044627 53 152 0.0 0.0 0.00 0.00 0.00 65 1014.3
20260504042619 50 150 1.7 1.7 0.00 0.00 0.00 71 1014.1
20260504040609 47 89 1.7 1.7 0.00 0.00 0.00 77 1014.1
20260504034553 45 148 0.0 0.0 0.00 0.00 0.00 81 1014.1
20260504032553 45 127 0.0 0.0 0.00 0.00 0.00 82 1014.0
20260504030551 43 131 0.0 0.0 0.00 0.00 0.00 84 1014.0
20260504024549 43 130 0.0 0.0 0.00 0.00 0.00 86 1014.0
20260504022549 44 133 0.0 0.0 0.00 0.00 0.00 84 1014.1
20260504020549 45 140 0.0 0.0 0.00 0.00 0.00 83 1014.1
20260504014537 44 138 0.0 0.0 0.00 0.00 0.00 83 1014.2
20260504012525 43 128 0.0 0.0 0.00 0.00 0.00 85 1014.2
20260504010524 45 124 0.0 0.0 0.00 0.00 0.00 82 1014.3
20260504004524 45 134 0.0 0.0 0.00 0.00 0.00 82 1014.4
20260504002512 48 148 0.0 0.0 0.00 0.00 0.00 76 1014.5
20260504000437 49 111 0.0 0.0 0.00 0.00 0.00 74 1014.6
20260503234400 49 137 0.0 0.0 0.00 0.00 0.00 73 1014.6
20260503232400 49 129 0.0 0.0 0.00 0.00 0.00 76 1014.6
20260503230336 51 139 0.0 0.0 0.00 0.00 0.00 74 1014.6
20260503224323 52 171 0.0 0.0 0.00 0.00 0.00 69 1014.7
20260503222322 51 205 0.0 0.0 0.00 0.00 0.00 74 1014.7
20260503220311 51 135 0.0 0.0 0.00 0.00 0.00 73 1014.7
20260503214234 51 170 0.0 0.0 0.00 0.00 0.00 75 1014.8
20260503212234 52 116 0.0 0.0 0.00 0.00 0.00 74 1014.7
20260503210211 53 127 0.0 0.0 0.00 0.00 0.00 73 1014.7
20260503204158 53 124 0.0 0.0 0.00 0.00 0.00 74 1014.6
20260503202146 54 122 0.0 0.0 0.00 0.00 0.00 71 1014.6
20260503200147 55 154 0.0 0.0 0.00 0.00 0.00 68 1014.6
20260503194134 59 132 0.0 0.0 0.00 0.00 0.00 62 1014.6
20260503192123 59 160 0.0 0.0 0.00 0.00 0.00 62 1014.6
20260503190059 61 118 0.0 0.0 0.00 0.00 0.00 56 1014.5
20260503184047 63 232 0.0 0.0 0.00 0.00 0.00 55 1014.4
20260503182034 64 120 0.0 0.0 0.00 0.00 0.00 50 1014.3
20260503180034 68 166 0.0 0.0 0.00 0.00 0.00 45 1014.2
20260503174034 70 148 0.0 0.0 0.00 0.00 0.00 42 1014.1
20260503171946 72 185 0.0 0.0 0.00 0.00 0.00 37 1014.1